This is the latest recevied weather packets stored in our database for station/object W8UFO-13. If no packets are shown the sender has not sent any weather packets the latest 1 day(s).
| Time | Temp. | Humidity | Pressure | Rain* | Wind** | Luminosity | Snow |
|---|---|---|---|---|---|---|---|
| 1778031257 | 21.67° C | 50% | 1012.2 hPa | 0 mm | 0.89 m/s, 270° | - | - |
| 1778030957 | 21.67° C | 50% | 1012.1 hPa | 0 mm | 0.45 m/s, 225° | - | - |
| 1778030657 | 22.22° C | 50% | 1012.1 hPa | 0 mm | 0.45 m/s, 315° | - | - |
| 1778030057 | 22.22° C | 49% | 1011.9 hPa | 0 mm | 0.89 m/s, 270° | - | - |
| 1778029757 | 22.22° C | 49% | 1011.8 hPa | 0 mm | 0.45 m/s, 248° | - | - |
| 1778029457 | 22.22° C | 49% | 1011.8 hPa | 0 mm | 0.45 m/s, 293° | - | - |
| 1778028857 | 22.22° C | 48% | 1011.9 hPa | 0 mm | 0.45 m/s, 248° | - | - |
| 1778028557 | 22.22° C | 48% | 1012.1 hPa | 0 mm | 0.45 m/s, 248° | - | - |
| 1778028255 | 22.22° C | 48% | 1012.1 hPa | 0 mm | 0.89 m/s, 225° | - | - |
| 1778027957 | 22.78° C | 48% | 1012.2 hPa | 0 mm | 0.89 m/s, 293° | - | - |
| 1778027657 | 22.78° C | 48% | 1012.3 hPa | 0 mm | 0.89 m/s, 270° | - | - |
| 1778027357 | 22.78° C | 48% | 1012.2 hPa | 0 mm | 0.45 m/s, 248° | - | - |
| 1778027057 | 22.78° C | 48% | 1012.3 hPa | 0 mm | 1.34 m/s, 180° | - | - |
| 1778026757 | 22.78° C | 48% | 1012.3 hPa | 0 mm | 1.34 m/s, 225° | - | - |
| 1778026457 | 22.78° C | 49% | 1012.3 hPa | 0 mm | 0.89 m/s, 248° | - | - |
| 1778026157 | 22.78° C | 49% | 1012.3 hPa | 0 mm | 1.79 m/s, 248° | - | - |
| 1778025857 | 22.78° C | 51% | 1012.3 hPa | 0 mm | 0.45 m/s, 225° | - | - |
| 1778025557 | 23.33° C | 51% | 1012.2 hPa | 0 mm | 0.45 m/s, 203° | - | - |
| 1778025257 | 23.33° C | 52% | 1012.2 hPa | 0 mm | 0.45 m/s, 203° | - | - |
| 1778024957 | 23.33° C | 51% | 1012.1 hPa | 0 mm | 0.45 m/s, 248° | - | - |
| 1778024657 | 23.33° C | 51% | 1012 hPa | 0 mm | 0.89 m/s, 270° | - | - |
| 1778024357 | 23.89° C | 51% | 1011.9 hPa | 0 mm | 1.34 m/s, 315° | - | - |
| 1778024057 | 23.89° C | 51% | 1012 hPa | 0 mm | 0.89 m/s, 248° | - | - |
| 1778023757 | 23.89° C | 52% | 1011.9 hPa | 0 mm | 0.89 m/s, 225° | - | - |
| 1778023457 | 23.89° C | 52% | 1011.9 hPa | 0 mm | 0.89 m/s, 225° | - | - |
* Rain latest hour (hover to see other rain measurements)
** Current wind speed in m/s (hover to see current wind gust speed)